Location: ????? ???????
(25.7275°N, 32.5929°E)
Time: 12:04:47
(UTC+00:00)

TSX-5 - Pass Details

Date: 02 March 2021
Orbit: 404 x 1321 km, 68.9° (Epoch: 15 April)

Event Time Altitude Azimuth Distance (km) Brightness Sun altitude
Rises 16:18:50 0° 340° (NNW) 2,624 7.5 -6.9°
Reaches altitude 10° 16:21:08 10° 342° (NNW) 1,636 6.4 -7.4°
Maximum altitude 16:24:38 76° 68° (ENE) 443 3.2 -8.2°
Drops below altitude 10° 16:27:46 10° 155° (SSE) 1,459 5.8 -8.9°
Sets 16:29:43 0° 157° (SSE) 2,306 6.8 -9.3°
